Regional Weather Roundup
Issued by NWS

Home | Current Version | Previous Version | Graphics & Text | Print | Product List | Glossary Off
Versions: 1 2 3 4 5 6 7 8 9 10 11 12 13 14 15 16 17 18 19 20 21 22 23 24 25 26 27 28 29 30 31 32 33 34 35 36 37 38 39 40 41 42 43 44 45 46 47 48 49 50

000
ASUS43 KTOP 221359
RWRKS

WEATHER ROUNDUP FOR KANSAS
NATIONAL WEATHER SERVICE GOODLAND KS
900 AM CDT WED OCT 22 2014

NOTE:  "FAIR" INDICATES FEW OR NO CLOUDS BELOW 12,000 FEET WITH NO
SIGNIFICANT WEATHER AND/OR OBSTRUCTIONS TO VISIBILITY.

KSZ001>006-013>018-027>032-041>047-221500-
NORTHWEST KANSAS

CITY           SKY/WX    TMP DP  RH WIND       PRES   REMARKS
GOODLAND       CLOUDY    52  48  86 W6        30.01R
HILL CITY      PTSUNNY   61  52  72 S10       29.99S
RUSSELL        SUNNY     58  52  80 S14G22    30.03R
$$

KSZ061>065-074>080-084>089-221500-
SOUTHWEST KANSAS

CITY           SKY/WX    TMP DP  RH WIND       PRES   REMARKS
DODGE CITY     MOSUNNY   56  50  80 S13       30.05R
ELKHART          N/A     56  51  84 S9          N/A
GARDEN CITY    PTSUNNY   58  52  80 S10       30.01R
GREAT BEND     SUNNY     57  50  77 S12       30.06R
LIBERAL        PTSUNNY   61  52  72 S14       30.05S
$$

KSZ066>073-081>083-090>101-221500-
SOUTHEAST KANSAS

CITY           SKY/WX    TMP DP  RH WIND       PRES   REMARKS
CHANUTE        MOSUNNY   57  51  80 SE10      30.17R
COFFEYVILLE    SUNNY     60  55  83 CALM      30.17R
HUTCHINSON     SUNNY     59  55  87 SE8       30.10R FOG
NEWTON         SUNNY     57  52  82 SE12      30.13S
PARSONS        SUNNY     61  55  81 MISG      30.19R
WICHITA INTL   MOSUNNY   61  57  87 SE10      30.12R
WICHITA JABRA  SUNNY     59  58  96 SE8       30.12S FOG
WINFIELD       CLOUDY    62  59  90 SE5       30.15R
$$

KSZ007>012-019>026-033>040-048>060-102>105-221500-
NORTHEAST KANSAS

CITY           SKY/WX    TMP DP  RH WIND       PRES   REMARKS
CONCORDIA      SUNNY     58  56  93 SE12      30.06R
EMPORIA        PTSUNNY   56  51  84 S9        30.15R
LAWRENCE       SUNNY     55  47  74 SE10      30.18R
MANHATTAN      MOSUNNY   58  52  80 S3        30.11S
OLATHE IND     PTSUNNY   54  46  74 SE13      30.19R
OLATHE EXE     CLOUDY    54  47  77 SE12      30.19R
SALINA         SUNNY     61  56  83 S7        30.08R
TOPEKA BILLARD MOSUNNY   58  50  75 SE7       30.16R
TOPEKA FORBES  SUNNY     56  47  71 SE10      30.15R
$$



USA.gov is the U.S. government's official web portal to all federal, state and local government web resources and services.